JA3VQW-13 Hirakata JP current weather conditions

sailwx.info

Wind from 270

Air temperature 8.3° C
Dewpoint 5.4° C

Last reported at 2017-Feb-22 16:29 UTC.
Time now 2017-Feb-22 17:21 UTC

Location: N 34°48' E 135°40'.
View on Google Maps.

See reports from other nearby stations

  
Tides and Currents Weather Stations Pressure Air Temp Water Temp Dewpoint Dewpoint Depression Visibility Wind Speed Wind Dir Waves Ship Positions
date/time (UTC)wind fromknots sea level pressurealtimeterstation pressurevisibilityair tempwater tempwave heightnotes
2017-Feb-22 16:29 270 8.3
2017-Feb-22 15:59 180 8.9
2017-Feb-22 15:40 225 8.9
2017-Feb-22 15:29 270 8.9
2017-Feb-22 14:59 270 8.3
2017-Feb-22 14:29 270 8.3
2017-Feb-22 13:59 135 8.3
2017-Feb-22 13:29 315 8.3
2017-Feb-22 12:59 135 8.9
2017-Feb-22 12:29 225 9.4
2017-Feb-22 11:59 225 8.9
2017-Feb-22 11:29 225 9.4
2017-Feb-22 10:59 315 9.4
2017-Feb-22 10:29 315 9.4
2017-Feb-22 09:59 315 10.0
2017-Feb-22 09:40 292 10.0
2017-Feb-22 09:29 292 10.0
2017-Feb-22 08:59 292 10.0
2017-Feb-22 08:29 292 10.6
2017-Feb-22 07:59 292 10.6
2017-Feb-22 07:29 292 11.1
2017-Feb-22 06:59 292 11.1
2017-Feb-22 06:29 292 11.7
2017-Feb-22 05:59 292 11.7
2017-Feb-22 05:29 270 12.2
2017-Feb-22 04:59 270 12.8
2017-Feb-22 04:29 270 12.8
2017-Feb-22 03:59 225 13.3
2017-Feb-22 03:29 248 12.8
2017-Feb-22 02:59 315 13.3
2017-Feb-22 02:29 270 11.7
2017-Feb-22 01:59 292 10.0
2017-Feb-22 01:29 292 8.9
2017-Feb-22 00:59 216 8.3
2017-Feb-22 00:29 180 5.0
2017-Feb-21 23:59 158 3.9
2017-Feb-21 23:29 112 2.8
2017-Feb-21 22:59 090 2.2
2017-Feb-21 22:29 090 1.1
2017-Feb-21 21:59 090 0.6
2017-Feb-21 21:29 090 1.1
2017-Feb-21 20:59 225 1.1
2017-Feb-21 20:29 225 1.1
2017-Feb-21 19:59 225 1.1
2017-Feb-21 19:29 135 1.1
2017-Feb-21 18:59 135 1.1
2017-Feb-21 18:29 113 1.7
2017-Feb-21 17:59 112 1.7
2017-Feb-21 17:29 112 1.7
2017-Feb-21 16:59 158 2.2
2017-Feb-21 16:29 180 2.2
2017-Feb-21 15:59 180 2.8
2017-Feb-21 15:29 180 3.3
2017-Feb-21 14:59 180 4.4
2017-Feb-21 14:29 279 3.9
2017-Feb-21 13:59 292 3.9
2017-Feb-21 13:29 315 4.4
2017-Feb-21 12:59 292 4.4
2017-Feb-21 12:29 292 4.4
2017-Feb-21 11:59 292 4.4
2017-Feb-21 11:29 292 3.9
2017-Feb-21 10:59 270 4.4
2017-Feb-21 10:29 280 4.4
2017-Feb-21 09:59 299 2 gusting 5 5.0
2017-Feb-21 09:29 292 4.4
2017-Feb-21 08:59 301 1 gusting 4 5.0
2017-Feb-21 08:29 292 5.6
2017-Feb-21 07:59 306 1 gusting 2 5.6
2017-Feb-21 07:29 289 2 gusting 5 8.3
2017-Feb-21 06:59 256 7.8
2017-Feb-21 06:29 247 8.9
2017-Feb-21 05:59 225 2 gusting 2 7.8
2017-Feb-21 05:29 270 7.2
2017-Feb-21 04:59 273 2 gusting 2 7.2
2017-Feb-21 04:29 285 9.4
2017-Feb-21 03:59 275 1 gusting 4 8.3
2017-Feb-21 03:29 229 1 gusting 4 8.3
2017-Feb-21 02:59 304 5 gusting 7 9.4
2017-Feb-21 02:29 285 1 gusting 2 8.3
2017-Feb-21 01:59 295 6.7
2017-Feb-21 01:29 235 6.7
2017-Feb-21 00:59 313 6.1
2017-Feb-21 00:29 200 5.0
2017-Feb-20 23:59 205 0 gusting 1 4.4
2017-Feb-20 23:29 278 2 gusting 4 4.4
2017-Feb-20 22:59 277 3.9
2017-Feb-20 22:29 292 2 gusting 4 3.3
2017-Feb-20 21:59 313 1 gusting 2 3.9
2017-Feb-20 21:29 243 1 gusting 1 4.4
2017-Feb-20 20:59 281 1 gusting 4 4.4
2017-Feb-20 20:29 279 3.9
2017-Feb-20 19:59 291 2 gusting 5 3.9
2017-Feb-20 19:29 288 4 gusting 4 4.4
2017-Feb-20 18:59 290 2 gusting 4 3.9
2017-Feb-20 18:29 280 4 gusting 5 3.9
2017-Feb-20 17:59 300 4 gusting 6 3.9
2017-Feb-20 17:29 292 5 gusting 5 3.9